Home > Weather > Grand Rapids > Past weeks

Flag for USA Past Weather in Grand Rapids, Michigan, USA — Yesterday and Last 2 Weeks

Now
70 °F

Partly sunny.


Feels Like: 77 °F
Forecast: 59 / 74 °F
Wind: 20 mph from North

Location: Kent County International Airport

Current Time: Jul 1, 2016 at 1:06:02 PM

Latest Report: Jul 1, 2016 at 11:53 AM


Visibility: 10 mi

Pressure: 30.00 "Hg

Humidity: 53%

Dew Point: 52 °F

Location of Grand RapidsLocation

Past Weather in Grand Rapids — Graph

°F

Grand Rapids Temperature Yesterday

Maximum temperature yesterday: 82 °F (at 12:53 PM)
Minimum temperature yesterday: 52 °F (at 4:53 AM)
Average temperature yesterday: 69 °F

High & Low Weather Summary for the Past Weeks

 TemperatureHumidityPressure
High92 °F (Jun 18, 2:53 PM)94% (Jun 26, 11:53 AM)30.24 "Hg (Jun 26, 11:53 AM)
Low52 °F (Jun 30, 4:53 AM)19% (Jun 29, 2:53 PM)29.75 "Hg (Jun 16, 11:53 AM)
Average73 °F53%30.02 "Hg
* Reported Jun 16 11:53 AM — Jul 1 11:53 AM, Grand Rapids, Weather by CustomWeather, © 2016

Note: Actual official high and low records may vary slightly from our data, if they occured in-between our weather recording intervals... More about our weather records

Advertising

Grand Rapids Weather History for the Previous 24 Hours

Scroll right to see more
 ConditionsComfort  
Time TempWeatherWind HumidityBarometerVisibility
11:53 AM
Fri, Jul 1
70 °FPartly sunny.20 mph53%30.00 "Hg10 mi
10:53 AM67 °FPartly sunny.14 mph61%29.99 "Hg10 mi
9:53 AM63 °FOvercast.18 mph73%29.98 "Hg10 mi
8:53 AM64 °FPartly sunny.13 mph75%29.96 "Hg10 mi
7:53 AM64 °FScattered clouds.13 mph75%29.94 "Hg10 mi
6:53 AM63 °FPassing clouds.13 mph84%29.91 "Hg10 mi
5:53 AM63 °FOvercast.10 mph87%29.89 "Hg10 mi
4:53 AM62 °FPassing clouds.No wind90%29.86 "Hg10 mi
3:53 AM63 °FOvercast.6 mph90%29.86 "Hg10 mi
3:03 AM63 °FStrong thunderstorms. Fog.9 mph90%29.88 "Hg1 mi
3:00 AM63 °FHeavy rain. Fog.10 mph90%29.89 "Hg2 mi
1:53 AM69 °FOvercast.10 mph59%29.87 "Hg10 mi
12:53 AM69 °FOvercast.7 mph55%29.88 "Hg10 mi
11:53 PM
Thu, Jun 30
69 °FPassing clouds.9 mph51%29.90 "Hg10 mi
10:53 PM69 °FPassing clouds.5 mph51%29.90 "Hg10 mi
9:53 PM70 °FPartly sunny.6 mph46%29.92 "Hg10 mi
8:53 PM75 °FPartly sunny.9 mph37%29.93 "Hg10 mi
7:53 PM78 °FScattered clouds.7 mph32%29.92 "Hg10 mi
6:53 PM80 °FScattered clouds.14 mph30%29.94 "Hg10 mi
5:53 PM81 °FScattered clouds.8 mph27%29.95 "Hg10 mi
4:53 PM81 °FPartly sunny.17 mph29%29.95 "Hg10 mi
3:53 PM81 °FPartly sunny.13 mph33%29.96 "Hg10 mi
2:53 PM78 °FPartly sunny.12 mph37%29.97 "Hg10 mi
1:53 PM79 °FScattered clouds.12 mph35%29.99 "Hg10 mi
Weather by CustomWeather, © 2016

See weather overviewHow to use our weather pages